Weather Service Report


462 
ASUS46 KSEW 210210
RWRWA 

WASHINGTON REGIONAL WEATHER ROUNDUP
NATIONAL WEATHER SERVICE SEATTLE WA
700 PM PDT SAT SEP 20 2014

NOTE:"FAIR" INDICATES FEW OR NO CLOUDS BELOW 12,000 FEET WITH NO 
SIGNIFICANT WEATHER AND/OR OBSTRUCTIONS TO VISIBILITY.

WAZ505-507>509-210300-
SEATTLE, TACOMA, EVERETT, AND VICINITY
  
CITY           SKY/WX    TMP DP  RH WIND       PRES   REMARKS
EVERETT        CLEAR     65  56  72 N5        29.94F                  
BOEING FIELD   CLEAR     71  55  56 NW5       29.90F                  
RENTON         CLEAR     72  60  66 NW12      29.89F                  
SEATAC AIRPORT PTCLDY    70  56  61 N6        29.92F                  
JBLM-MCCHORD   CLEAR     70  57  64 N5        29.91F                  
PUYALLUP       NOT AVBL                                               
JBLM-FT LEWIS  CLEAR     72  57  60 N7        29.90F                  
TACOMA NARROWS CLEAR     68  55  63 N7        29.91F                  
$$
 
WAZ001-503-506-510-514-515-210300-
NORTH INTERIOR
  
CITY           SKY/WX    TMP DP  RH WIND       PRES   REMARKS
BELLINGHAM     CLEAR     65  57  75 CALM      29.93F                  
FRIDAY HARBOR  CLEAR     64  53  67 VRB3      29.94F                  
EASTSOUND      CLEAR     59  57  94 CALM      29.93F                  
PORT ANGELES     N/A     65  53  65 E5        29.95F                  
NAS WHIDBEY    PTCLDY    61  54  77 SW7       29.94F                  
BURLINGTON     CLEAR     64  57  77 NW13      29.93F                  
$$
 
WAZ020-022-039-040-504-511-512-210300-
SOUTHWEST INTERIOR
  
CITY           SKY/WX    TMP DP  RH WIND       PRES   REMARKS
SHELTON        CLEAR     72  56  57 CALM      29.87F                  
OLYMPIA        CLEAR     73  56  54 NE6       29.90F                  
CHEHALIS       FAIR      75  59  57 VRB7G14   29.87F                  
KELSO          CLEAR     81  57  44 N6        29.86S                  
VANCOUVER      CLEAR     88  46  23 E10       29.79F                  
SCAPPOOSE, OR  CLEAR     86  54  33 N7        29.80S                  
PORTLAND, OR   MOCLDY    87  49  26 E16       29.79F                  
$$
 
WAZ021-516-517-210300-
WASHINGTON COAST
  
CITY           SKY/WX    TMP DP  RH WIND       PRES   REMARKS
FORKS          CLEAR     74  53  48 NE6       29.86F                  
HOQUIAM        CLEAR     75  60  59 E12       29.83F                  
ASTORIA, OR    CLEAR     81  58  45 E9        29.78F                  
$$
 
WAZ019-023-024-040-518-519-210300-
CASCADE MOUNTAINS AND COLUMBIA GORGE
  
CITY           SKY/WX    TMP DP  RH WIND       PRES   REMARKS
STAMPEDE PASS  NOT AVBL                                               
TROUTDALE, OR  CLEAR     83  51  33 E12       29.79F                  
THE DALLES, OR CLEAR     84  46  26 SE8       29.89F                  
$$

WAZ026-027-041>044-520-521-210300-
EAST SLOPES
  
CITY           SKY/WX    TMP DP  RH WIND       PRES   REMARKS
OMAK           CLEAR     74  38  27 N9        30.03F                  
WENATCHEE      CLEAR     81  49  32 NW5       30.00F                  
ELLENSBURG     CLEAR     77  49  37 S5        30.02                   
YAKIMA         CLEAR     80  48  32 CALM      29.99F                  
$$

WAZ028-034-035-210300-
COLUMBIA BASIN
  
CITY           SKY/WX    TMP DP  RH WIND       PRES   REMARKS
EPHRATA        CLEAR     81  42  25 NE8       29.99F                  
MOSES LAKE     CLEAR     81  45  28 NE7       29.99F                  
PASCO          CLEAR     76  57  51 N6        29.92F                  
HERMISTON, OR  CLEAR     83  50  31 N3        29.93S                  
$$

WAZ036>038-210300-
NORTHEAST WASHINGTON
  
CITY           SKY/WX    TMP DP  RH WIND       PRES   REMARKS
SPOKANE GEIGER PTCLDY    75  42  30 N7        30.06F                  
SPOKANE FELTS  CLEAR     74  39  28 CALM      30.05F                  
FAIRCHILD AFB  CLEAR     73  41  32 N8        30.07F                  
COEURDALENE,ID CLEAR     73  45  35 N10       30.06S                  
DEER PARK      CLEAR     72  43  35 N6        30.07F                  
$$

WAZ029>033-210300-
SOUTHEAST WASHINGTON
  
CITY           SKY/WX    TMP DP  RH WIND       PRES   REMARKS
PULLMAN        CLEAR     76  35  22 CALM      30.05F                  
LEWISTON, ID   CLEAR     81  41  24 W6        29.96F                  
WALLA WALLA    CLEAR     81  53  37 S5        29.96F                  
PENDLETON, OR  CLEAR     78  45  30 N6        29.97S                  
$$

Return to Home page


Western Regional Climate Center, wrcc@dri.edu